Year,Month,Day,Hour,Minute,Value (Times are PST for windspeed in km/hr)
2013,05,21,00,00,3.50
2013,05,21,00,01,7.90
2013,05,21,00,02,8.10
2013,05,21,00,03,4.00
2013,05,21,00,04,0.60
2013,05,21,00,05,3.80
2013,05,21,00,06,6.00
2013,05,21,00,07,3.80
2013,05,21,00,08,4.40
2013,05,21,00,09,3.60
2013,05,21,00,10,2.90
2013,05,21,00,11,4.50
2013,05,21,00,12,5.10
2013,05,21,00,13,4.50
2013,05,21,00,14,2.30
2013,05,21,00,15,2.00
2013,05,21,00,16,2.80
2013,05,21,00,17,2.80
2013,05,21,00,18,1.90
2013,05,21,00,19,2.10
2013,05,21,00,20,3.50
2013,05,21,00,21,0.60
2013,05,21,00,22,3.60
2013,05,21,00,23,2.10
2013,05,21,00,24,1.00
2013,05,21,00,25,1.40
2013,05,21,00,26,2.40
2013,05,21,00,27,1.90
2013,05,21,00,28,1.80
2013,05,21,00,29,0.60
2013,05,21,00,30,4.40
2013,05,21,00,31,2.70
2013,05,21,00,32,0.90
2013,05,21,00,33,0.20
2013,05,21,00,34,0.90
2013,05,21,00,35,0.50
2013,05,21,00,36,0.80
2013,05,21,00,37,3.20
2013,05,21,00,38,1.10
2013,05,21,00,39,0.30
2013,05,21,00,40,3.30
2013,05,21,00,41,3.40
2013,05,21,00,42,0.30
2013,05,21,00,43,1.40
2013,05,21,00,44,3.10
2013,05,21,00,45,3.00
2013,05,21,00,46,1.10
2013,05,21,00,47,0.40
2013,05,21,00,48,0.60
2013,05,21,00,49,0.00
2013,05,21,00,50,2.20
2013,05,21,00,51,1.30
2013,05,21,00,52,0.80
2013,05,21,00,53,0.60
2013,05,21,00,54,1.40
2013,05,21,00,55,3.60
2013,05,21,00,56,1.30
2013,05,21,00,57,0.10
2013,05,21,00,58,0.10
2013,05,21,00,59,0.00
2013,05,21,01,00,0.20
2013,05,21,01,01,0.00
2013,05,21,01,02,1.30
2013,05,21,01,03,0.10
2013,05,21,01,04,0.30
2013,05,21,01,05,0.80
2013,05,21,01,06,0.20
2013,05,21,01,07,0.10
2013,05,21,01,08,1.90
2013,05,21,01,09,1.00
2013,05,21,01,10,1.10
2013,05,21,01,11,0.60
2013,05,21,01,12,0.10
2013,05,21,01,13,1.00
2013,05,21,01,14,0.60
2013,05,21,01,15,0.00
2013,05,21,01,16,0.00
2013,05,21,01,17,0.30
2013,05,21,01,18,0.10
2013,05,21,01,19,0.00
2013,05,21,01,20,0.00
2013,05,21,01,21,0.00
2013,05,21,01,22,0.00
2013,05,21,01,23,0.10
2013,05,21,01,24,0.00
2013,05,21,01,25,0.00
2013,05,21,01,26,0.10
2013,05,21,01,27,0.00
2013,05,21,01,28,0.00
2013,05,21,01,29,0.00
2013,05,21,01,30,0.00
2013,05,21,01,31,0.00
2013,05,21,01,32,0.00
2013,05,21,01,33,0.00
2013,05,21,01,34,0.00
2013,05,21,01,35,0.00
2013,05,21,01,36,0.00
2013,05,21,01,37,1.80
2013,05,21,01,38,1.90
2013,05,21,01,39,1.40
2013,05,21,01,40,2.00
2013,05,21,01,41,2.30
2013,05,21,01,42,1.00
2013,05,21,01,43,0.90
2013,05,21,01,44,0.30
2013,05,21,01,45,0.70
2013,05,21,01,46,0.10
2013,05,21,01,47,1.80
2013,05,21,01,48,2.10
2013,05,21,01,49,4.70
2013,05,21,01,50,3.70
2013,05,21,01,51,2.70
2013,05,21,01,52,3.00
2013,05,21,01,53,3.40
2013,05,21,01,54,4.00
2013,05,21,01,55,1.60
2013,05,21,01,56,1.90
2013,05,21,01,57,0.30
2013,05,21,01,58,1.20
2013,05,21,01,59,1.30
2013,05,21,02,00,0.80
2013,05,21,02,01,0.00
2013,05,21,02,02,0.00
2013,05,21,02,03,0.10
2013,05,21,02,04,0.00
2013,05,21,02,05,0.00
2013,05,21,02,06,0.00
2013,05,21,02,07,0.20
2013,05,21,02,08,3.80
2013,05,21,02,09,3.00
2013,05,21,02,10,3.40
2013,05,21,02,11,2.40
2013,05,21,02,12,1.70
2013,05,21,02,13,0.40
2013,05,21,02,14,0.80
2013,05,21,02,15,2.50
2013,05,21,02,16,2.00
2013,05,21,02,17,1.30
2013,05,21,02,18,0.60
2013,05,21,02,19,0.00
2013,05,21,02,20,0.20
2013,05,21,02,21,0.20
2013,05,21,02,22,0.00
2013,05,21,02,23,1.00
2013,05,21,02,24,1.60
2013,05,21,02,25,1.10
2013,05,21,02,26,1.40
2013,05,21,02,27,0.60
2013,05,21,02,28,1.80
2013,05,21,02,29,0.90
2013,05,21,02,30,1.80
2013,05,21,02,31,2.20
2013,05,21,02,32,2.10
2013,05,21,02,33,2.60
2013,05,21,02,34,1.20
2013,05,21,02,35,1.00
2013,05,21,02,36,0.20
2013,05,21,02,37,0.90
2013,05,21,02,38,0.00
2013,05,21,02,39,0.10
2013,05,21,02,40,0.00
2013,05,21,02,41,0.00
2013,05,21,02,42,0.00
2013,05,21,02,43,0.20
2013,05,21,02,44,0.70
2013,05,21,02,45,0.00
2013,05,21,02,46,0.30
2013,05,21,02,47,0.60
2013,05,21,02,48,0.60
2013,05,21,02,49,0.60
2013,05,21,02,50,0.90
2013,05,21,02,51,0.10
2013,05,21,02,52,0.00
2013,05,21,02,53,0.10
2013,05,21,02,54,0.20
2013,05,21,02,55,0.10
2013,05,21,02,56,0.10
2013,05,21,02,57,0.00
2013,05,21,02,58,0.00
2013,05,21,02,59,0.10
2013,05,21,03,00,0.00
2013,05,21,03,01,0.00
2013,05,21,03,02,0.00
2013,05,21,03,03,0.10
2013,05,21,03,04,0.30
2013,05,21,03,05,0.00
2013,05,21,03,06,0.00
2013,05,21,03,07,0.00
2013,05,21,03,08,0.00
2013,05,21,03,09,0.00
2013,05,21,03,10,0.00
2013,05,21,03,11,0.00
2013,05,21,03,12,0.10
2013,05,21,03,13,0.00
2013,05,21,03,14,0.10
2013,05,21,03,15,0.00
2013,05,21,03,16,0.00
2013,05,21,03,17,0.00
2013,05,21,03,18,0.00
2013,05,21,03,19,0.00
2013,05,21,03,20,0.00
2013,05,21,03,21,0.00
2013,05,21,03,22,0.00
2013,05,21,03,23,0.00
2013,05,21,03,24,0.00
2013,05,21,03,25,0.00
2013,05,21,03,26,0.00
2013,05,21,03,27,0.00
2013,05,21,03,28,0.20
2013,05,21,03,29,0.00
2013,05,21,03,30,0.00
2013,05,21,03,31,0.00
2013,05,21,03,32,0.00
2013,05,21,03,33,0.00
2013,05,21,03,34,0.00
2013,05,21,03,35,0.00
2013,05,21,03,36,0.00
2013,05,21,03,37,0.00
2013,05,21,03,38,0.00
2013,05,21,03,39,0.00
2013,05,21,03,40,0.00
2013,05,21,03,41,0.00
2013,05,21,03,42,0.00
2013,05,21,03,43,0.00
2013,05,21,03,44,0.00
2013,05,21,03,45,0.00
2013,05,21,03,46,0.00
2013,05,21,03,47,0.00
2013,05,21,03,48,0.60
2013,05,21,03,49,3.30
2013,05,21,03,50,1.70
2013,05,21,03,51,0.70
2013,05,21,03,52,0.60
2013,05,21,03,53,1.00
2013,05,21,03,54,2.30
2013,05,21,03,55,0.70
2013,05,21,03,56,0.00
2013,05,21,03,57,0.00
2013,05,21,03,58,0.10
2013,05,21,03,59,0.20
2013,05,21,04,00,0.10
2013,05,21,04,01,0.10
2013,05,21,04,02,0.00
2013,05,21,04,03,0.00
2013,05,21,04,04,0.00
2013,05,21,04,05,0.00
2013,05,21,04,06,0.00
2013,05,21,04,07,0.60
2013,05,21,04,08,0.60
2013,05,21,04,09,1.30
2013,05,21,04,10,1.90
2013,05,21,04,11,2.00
2013,05,21,04,12,1.90
2013,05,21,04,13,1.20
2013,05,21,04,14,1.10
2013,05,21,04,15,0.70
2013,05,21,04,16,0.70
2013,05,21,04,17,0.40
2013,05,21,04,18,0.00
2013,05,21,04,19,0.10
2013,05,21,04,20,0.00
2013,05,21,04,21,0.10
2013,05,21,04,22,0.00
2013,05,21,04,23,0.00
2013,05,21,04,24,0.00
2013,05,21,04,25,0.00
2013,05,21,04,26,0.00
2013,05,21,04,27,0.00
2013,05,21,04,28,0.00
2013,05,21,04,29,0.00
2013,05,21,04,30,0.00
2013,05,21,04,31,0.00
2013,05,21,04,32,0.20
2013,05,21,04,33,0.00
2013,05,21,04,34,0.00
2013,05,21,04,35,1.30
2013,05,21,04,36,1.90
2013,05,21,04,37,0.20
2013,05,21,04,38,0.00
2013,05,21,04,39,0.30
2013,05,21,04,40,0.90
2013,05,21,04,41,0.20
2013,05,21,04,42,0.00
2013,05,21,04,43,0.00
2013,05,21,04,44,0.60
2013,05,21,04,45,0.20
2013,05,21,04,46,0.20
2013,05,21,04,47,0.20
2013,05,21,04,48,1.50
2013,05,21,04,49,1.00
2013,05,21,04,50,0.90
2013,05,21,04,51,1.50
2013,05,21,04,52,0.70
2013,05,21,04,53,1.30
2013,05,21,04,54,2.80
2013,05,21,04,55,1.50
2013,05,21,04,56,0.50
2013,05,21,04,57,0.80
2013,05,21,04,58,0.40
2013,05,21,04,59,2.50
2013,05,21,05,00,3.30
2013,05,21,05,01,1.20
2013,05,21,05,02,1.10
2013,05,21,05,03,1.50
2013,05,21,05,04,1.90
2013,05,21,05,05,1.90
2013,05,21,05,06,2.30
2013,05,21,05,07,1.40
2013,05,21,05,08,0.20
2013,05,21,05,09,0.00
2013,05,21,05,10,0.00
2013,05,21,05,11,0.00
2013,05,21,05,12,0.00
2013,05,21,05,13,0.00
2013,05,21,05,14,0.00
2013,05,21,05,15,0.00
2013,05,21,05,16,0.00
2013,05,21,05,17,0.00
2013,05,21,05,18,0.00
2013,05,21,05,19,0.00
2013,05,21,05,20,0.00
2013,05,21,05,21,0.00
2013,05,21,05,22,0.00
2013,05,21,05,23,0.00
2013,05,21,05,24,0.00
2013,05,21,05,25,0.00
2013,05,21,05,26,0.00
2013,05,21,05,27,0.00
2013,05,21,05,28,0.00
2013,05,21,05,29,0.00
2013,05,21,05,30,0.00
2013,05,21,05,31,0.00
2013,05,21,05,32,0.00
2013,05,21,05,33,0.00
2013,05,21,05,34,0.00
2013,05,21,05,35,0.00
2013,05,21,05,36,0.00
2013,05,21,05,37,0.00
2013,05,21,05,38,0.00
2013,05,21,05,39,0.00
2013,05,21,05,40,0.00
2013,05,21,05,41,0.00
2013,05,21,05,42,0.00
2013,05,21,05,43,0.00
2013,05,21,05,44,0.00
2013,05,21,05,45,0.00
2013,05,21,05,46,0.00
2013,05,21,05,47,0.00
2013,05,21,05,48,0.00
2013,05,21,05,49,0.00
2013,05,21,05,50,0.00
2013,05,21,05,51,0.00
2013,05,21,05,52,0.00
2013,05,21,05,53,0.00
2013,05,21,05,54,0.00
2013,05,21,05,55,0.00
2013,05,21,05,56,0.00
2013,05,21,05,57,0.00
2013,05,21,05,58,0.00
2013,05,21,05,59,0.00
2013,05,21,06,00,0.00
2013,05,21,06,01,0.00
2013,05,21,06,02,0.00
2013,05,21,06,03,0.00
2013,05,21,06,04,0.00
2013,05,21,06,05,0.00
2013,05,21,06,06,0.00
2013,05,21,06,07,0.00
2013,05,21,06,08,0.00
2013,05,21,06,09,1.10
2013,05,21,06,10,1.10
2013,05,21,06,11,0.70
2013,05,21,06,12,1.50
2013,05,21,06,13,0.10
2013,05,21,06,14,0.30
2013,05,21,06,15,1.50
2013,05,21,06,16,0.10
2013,05,21,06,17,0.40
2013,05,21,06,18,0.00
2013,05,21,06,19,0.00
2013,05,21,06,20,0.00
2013,05,21,06,21,0.00
2013,05,21,06,22,0.00
2013,05,21,06,23,0.00
2013,05,21,06,24,0.00
2013,05,21,06,25,0.00
2013,05,21,06,26,0.00
2013,05,21,06,27,0.00
2013,05,21,06,28,0.00
2013,05,21,06,29,0.00
2013,05,21,06,30,0.00
2013,05,21,06,31,1.60
2013,05,21,06,32,1.50
2013,05,21,06,33,0.50
2013,05,21,06,34,0.60
2013,05,21,06,35,0.20
2013,05,21,06,36,0.00
2013,05,21,06,37,0.00
2013,05,21,06,38,0.00
2013,05,21,06,39,0.00
2013,05,21,06,40,0.00
2013,05,21,06,41,0.00
2013,05,21,06,42,0.00
2013,05,21,06,43,0.00
2013,05,21,06,44,0.00
2013,05,21,06,45,0.00
2013,05,21,06,46,2.10
2013,05,21,06,47,3.90
2013,05,21,06,48,2.80
2013,05,21,06,49,2.20
2013,05,21,06,50,1.30
2013,05,21,06,51,1.60
2013,05,21,06,52,1.30
2013,05,21,06,53,2.50
2013,05,21,06,54,2.00
2013,05,21,06,55,2.30
2013,05,21,06,56,2.50
2013,05,21,06,57,2.90
2013,05,21,06,58,2.40
2013,05,21,06,59,2.30
2013,05,21,07,00,2.10
2013,05,21,07,01,1.90
2013,05,21,07,02,1.30
2013,05,21,07,03,0.10
2013,05,21,07,04,0.10
2013,05,21,07,05,0.00
2013,05,21,07,06,0.30
2013,05,21,07,07,1.30
2013,05,21,07,08,0.50
2013,05,21,07,09,1.00
2013,05,21,07,10,0.50
2013,05,21,07,11,0.00
2013,05,21,07,12,0.00
2013,05,21,07,13,0.00
2013,05,21,07,14,0.00
2013,05,21,07,15,0.00
2013,05,21,07,16,0.00
2013,05,21,07,17,0.00
2013,05,21,07,18,0.40
2013,05,21,07,19,1.30
2013,05,21,07,20,0.10
2013,05,21,07,21,0.80
2013,05,21,07,22,4.50
2013,05,21,07,23,3.10
2013,05,21,07,24,2.30
2013,05,21,07,25,1.60
2013,05,21,07,26,2.20
2013,05,21,07,27,1.30
2013,05,21,07,28,2.40
2013,05,21,07,29,4.30
2013,05,21,07,30,3.10
2013,05,21,07,31,2.50
2013,05,21,07,32,2.00
2013,05,21,07,33,0.30
2013,05,21,07,34,0.90
2013,05,21,07,35,0.90
2013,05,21,07,36,1.60
2013,05,21,07,37,1.10
2013,05,21,07,38,0.30
2013,05,21,07,39,0.20
2013,05,21,07,40,0.60
2013,05,21,07,41,0.50
2013,05,21,07,42,3.10
2013,05,21,07,43,3.00
2013,05,21,07,44,3.40
2013,05,21,07,45,1.50
2013,05,21,07,46,2.60
2013,05,21,07,47,3.60
2013,05,21,07,48,3.70
2013,05,21,07,49,1.50
2013,05,21,07,50,1.90
2013,05,21,07,51,5.20
2013,05,21,07,52,3.40
2013,05,21,07,53,4.60
2013,05,21,07,54,4.80
2013,05,21,07,55,4.90
2013,05,21,07,56,5.70
2013,05,21,07,57,1.10
2013,05,21,07,58,3.60
2013,05,21,07,59,1.40
2013,05,21,08,00,1.50
2013,05,21,08,01,3.70
2013,05,21,08,02,7.40
2013,05,21,08,03,5.70
2013,05,21,08,04,0.90
2013,05,21,08,05,2.10
2013,05,21,08,06,5.20
2013,05,21,08,07,4.60
2013,05,21,08,08,4.50
2013,05,21,08,09,5.70
2013,05,21,08,10,4.90
2013,05,21,08,11,1.40
2013,05,21,08,12,0.30
2013,05,21,08,13,0.10
2013,05,21,08,14,1.50
2013,05,21,08,15,1.40
2013,05,21,08,16,0.20
2013,05,21,08,17,1.90
2013,05,21,08,18,0.20
2013,05,21,08,19,0.20
2013,05,21,08,20,2.80
2013,05,21,08,21,0.50
2013,05,21,08,22,3.10
2013,05,21,08,23,1.40
2013,05,21,08,24,1.40
2013,05,21,08,25,0.80
2013,05,21,08,26,4.50
2013,05,21,08,27,5.10
2013,05,21,08,28,2.60
2013,05,21,08,29,4.80
2013,05,21,08,30,3.30
2013,05,21,08,31,3.10
2013,05,21,08,32,0.40
2013,05,21,08,33,3.60
2013,05,21,08,34,4.40
2013,05,21,08,35,0.90
2013,05,21,08,36,3.90
2013,05,21,08,37,4.60
2013,05,21,08,38,4.70
2013,05,21,08,39,1.70
2013,05,21,08,40,5.20
2013,05,21,08,41,4.80
2013,05,21,08,42,1.80
2013,05,21,08,43,4.30
2013,05,21,08,44,2.30
2013,05,21,08,45,2.60
2013,05,21,08,46,4.60
2013,05,21,08,47,6.00
2013,05,21,08,48,3.90
2013,05,21,08,49,3.10
2013,05,21,08,50,0.70
2013,05,21,08,51,2.10
2013,05,21,08,52,2.20
2013,05,21,08,53,3.40
2013,05,21,08,54,2.60
2013,05,21,08,55,1.40
2013,05,21,08,56,1.50
2013,05,21,08,57,2.40
2013,05,21,08,58,2.80
2013,05,21,08,59,4.50
2013,05,21,09,00,7.20
2013,05,21,09,01,4.80
2013,05,21,09,02,5.40
2013,05,21,09,03,3.90
2013,05,21,09,04,7.00
2013,05,21,09,05,3.90
2013,05,21,09,06,1.30
2013,05,21,09,07,6.50
2013,05,21,09,08,9.00
2013,05,21,09,09,9.70
2013,05,21,09,10,7.60
2013,05,21,09,11,8.20
2013,05,21,09,12,2.40
2013,05,21,09,13,2.30
2013,05,21,09,14,1.10
2013,05,21,09,15,3.50
2013,05,21,09,16,7.90
2013,05,21,09,17,5.80
2013,05,21,09,18,3.70
2013,05,21,09,19,5.40
2013,05,21,09,20,6.40
2013,05,21,09,21,8.10
2013,05,21,09,22,4.60
2013,05,21,09,23,2.10
2013,05,21,09,24,5.10
2013,05,21,09,25,8.20
2013,05,21,09,26,7.20
2013,05,21,09,27,5.40
2013,05,21,09,28,5.40
2013,05,21,09,29,1.40
2013,05,21,09,30,1.00
2013,05,21,09,31,2.90
2013,05,21,09,32,8.40
2013,05,21,09,33,5.10
2013,05,21,09,34,2.50
2013,05,21,09,35,5.60
2013,05,21,09,36,5.10
2013,05,21,09,37,3.80
2013,05,21,09,38,5.60
2013,05,21,09,39,2.80
2013,05,21,09,40,3.10
2013,05,21,09,41,2.00
2013,05,21,09,42,4.10
2013,05,21,09,43,5.90
2013,05,21,09,44,4.40
2013,05,21,09,45,6.00
2013,05,21,09,46,4.30
2013,05,21,09,47,4.20
2013,05,21,09,48,5.60
2013,05,21,09,49,8.10
2013,05,21,09,50,6.80
2013,05,21,09,51,6.10
2013,05,21,09,52,2.40
2013,05,21,09,53,7.00
2013,05,21,09,54,6.50
2013,05,21,09,55,6.60
2013,05,21,09,56,7.40
2013,05,21,09,57,10.30
2013,05,21,09,58,8.50
2013,05,21,09,59,5.40
2013,05,21,10,00,7.70
2013,05,21,10,01,6.40
2013,05,21,10,02,7.70
2013,05,21,10,03,2.40
2013,05,21,10,04,6.00
2013,05,21,10,05,6.40
2013,05,21,10,06,6.70
2013,05,21,10,07,5.60
2013,05,21,10,08,2.50
2013,05,21,10,09,3.10
2013,05,21,10,10,5.60
2013,05,21,10,11,6.30
2013,05,21,10,12,5.50
2013,05,21,10,13,7.40
2013,05,21,10,14,6.70
2013,05,21,10,15,10.00
2013,05,21,10,16,6.80
2013,05,21,10,17,5.40
2013,05,21,10,18,4.50
2013,05,21,10,19,6.10
2013,05,21,10,20,3.60
2013,05,21,10,21,4.60
2013,05,21,10,22,7.60
2013,05,21,10,23,7.10
2013,05,21,10,24,4.80
2013,05,21,10,25,4.70
2013,05,21,10,26,5.40
2013,05,21,10,27,6.80
2013,05,21,10,28,7.60
2013,05,21,10,29,5.10
2013,05,21,10,30,6.80
2013,05,21,10,31,9.20
2013,05,21,10,32,11.00
2013,05,21,10,33,9.20
2013,05,21,10,34,4.40
2013,05,21,10,35,5.60
2013,05,21,10,36,6.70
2013,05,21,10,37,7.90
2013,05,21,10,38,9.20
2013,05,21,10,39,6.30
2013,05,21,10,40,7.00
2013,05,21,10,41,6.30
2013,05,21,10,42,8.10
2013,05,21,10,43,9.20
2013,05,21,10,44,4.60
2013,05,21,10,45,7.50
2013,05,21,10,46,10.60
2013,05,21,10,47,8.40
2013,05,21,10,48,7.70
2013,05,21,10,49,6.10
2013,05,21,10,50,8.10
2013,05,21,10,51,5.00
2013,05,21,10,52,5.30
2013,05,21,10,53,4.70
2013,05,21,10,54,8.70
2013,05,21,10,55,7.20
2013,05,21,10,56,7.00
2013,05,21,10,57,6.50
2013,05,21,10,58,8.00
2013,05,21,10,59,6.60
2013,05,21,11,00,8.40
2013,05,21,11,01,5.60
2013,05,21,11,02,6.40
2013,05,21,11,03,6.40
2013,05,21,11,04,6.10
2013,05,21,11,05,7.10
2013,05,21,11,06,5.40
2013,05,21,11,07,6.30
2013,05,21,11,08,5.60
2013,05,21,11,09,10.60
2013,05,21,11,10,12.00
2013,05,21,11,11,5.10
2013,05,21,11,12,5.40
2013,05,21,11,13,7.50
2013,05,21,11,14,9.00
2013,05,21,11,15,4.40
2013,05,21,11,16,10.00
2013,05,21,11,17,6.80
2013,05,21,11,18,6.90
2013,05,21,11,19,6.10
2013,05,21,11,20,7.20
2013,05,21,11,21,5.30
2013,05,21,11,22,8.60
2013,05,21,11,23,5.60
2013,05,21,11,24,5.60
2013,05,21,11,25,5.40
2013,05,21,11,26,8.10
2013,05,21,11,27,4.70
2013,05,21,11,28,7.60
2013,05,21,11,29,3.70
2013,05,21,11,30,4.60
2013,05,21,11,31,6.70
2013,05,21,11,32,4.30
2013,05,21,11,33,10.90
2013,05,21,11,34,7.80
2013,05,21,11,35,4.00
2013,05,21,11,36,4.60
2013,05,21,11,37,8.00
2013,05,21,11,38,6.30
2013,05,21,11,39,6.70
2013,05,21,11,40,7.70
2013,05,21,11,41,7.40
2013,05,21,11,42,12.10
2013,05,21,11,43,11.60
2013,05,21,11,44,13.00
2013,05,21,11,45,12.60
2013,05,21,11,46,7.50
2013,05,21,11,47,6.30
2013,05,21,11,48,6.40
2013,05,21,11,49,5.40
2013,05,21,11,50,5.60
2013,05,21,11,51,12.10
2013,05,21,11,52,5.60
2013,05,21,11,53,4.70
2013,05,21,11,54,6.40
2013,05,21,11,55,8.50
2013,05,21,11,56,3.70
2013,05,21,11,57,2.60
2013,05,21,11,58,4.90
2013,05,21,11,59,13.00
2013,05,21,12,00,9.60
2013,05,21,12,01,7.20
2013,05,21,12,02,4.30
2013,05,21,12,03,3.50
2013,05,21,12,04,5.50
2013,05,21,12,05,7.50
2013,05,21,12,06,7.50
2013,05,21,12,07,8.60
2013,05,21,12,08,7.20
2013,05,21,12,09,9.80
2013,05,21,12,10,5.20
2013,05,21,12,11,5.90
2013,05,21,12,12,6.50
2013,05,21,12,13,9.80
2013,05,21,12,14,10.90
2013,05,21,12,15,9.20
2013,05,21,12,16,5.60
2013,05,21,12,17,5.40
2013,05,21,12,18,10.00
2013,05,21,12,19,7.70
2013,05,21,12,20,8.10
2013,05,21,12,21,7.30
2013,05,21,12,22,4.80
2013,05,21,12,23,5.60
2013,05,21,12,24,8.10
2013,05,21,12,25,1.10
2013,05,21,12,26,2.00
2013,05,21,12,27,3.10
2013,05,21,12,28,8.40
2013,05,21,12,29,8.50
2013,05,21,12,30,7.00
2013,05,21,12,31,6.10
2013,05,21,12,32,8.60
2013,05,21,12,33,6.20
2013,05,21,12,34,7.40
2013,05,21,12,35,6.30
2013,05,21,12,36,1.20
2013,05,21,12,37,4.60
2013,05,21,12,38,7.50
2013,05,21,12,39,5.10
2013,05,21,12,40,4.70
2013,05,21,12,41,7.60
2013,05,21,12,42,6.20
2013,05,21,12,43,9.80
2013,05,21,12,44,5.20
2013,05,21,12,45,3.50
2013,05,21,12,46,4.30
2013,05,21,12,47,6.80
2013,05,21,12,48,3.10
2013,05,21,12,49,5.70
2013,05,21,12,50,3.90
2013,05,21,12,51,5.20
2013,05,21,12,52,3.90
2013,05,21,12,53,7.20
2013,05,21,12,54,4.20
2013,05,21,12,55,1.30
2013,05,21,12,56,0.50
2013,05,21,12,57,2.70
2013,05,21,12,58,2.00
2013,05,21,12,59,2.30
2013,05,21,13,00,4.30
2013,05,21,13,01,3.10
2013,05,21,13,02,9.50
2013,05,21,13,03,6.00
2013,05,21,13,04,7.80
2013,05,21,13,05,6.30
2013,05,21,13,06,4.70
2013,05,21,13,07,5.50
2013,05,21,13,08,2.20
2013,05,21,13,09,1.80
2013,05,21,13,10,3.80
2013,05,21,13,11,3.00
2013,05,21,13,12,4.10
2013,05,21,13,13,3.80
2013,05,21,13,14,0.60
2013,05,21,13,15,1.20
2013,05,21,13,16,2.20
2013,05,21,13,17,2.30
2013,05,21,13,18,2.40
2013,05,21,13,19,0.60
2013,05,21,13,20,2.20
2013,05,21,13,21,4.00
2013,05,21,13,22,1.40
2013,05,21,13,23,1.90
2013,05,21,13,24,1.30
2013,05,21,13,25,0.90
2013,05,21,13,26,0.00
2013,05,21,13,27,1.10
2013,05,21,13,28,1.00
2013,05,21,13,29,1.20
2013,05,21,13,30,2.90
2013,05,21,13,31,4.70
2013,05,21,13,32,4.50
2013,05,21,13,33,1.60
2013,05,21,13,34,0.80
2013,05,21,13,35,3.00
2013,05,21,13,36,3.90
2013,05,21,13,37,4.50
2013,05,21,13,38,4.70
2013,05,21,13,39,4.70
2013,05,21,13,40,4.80
2013,05,21,13,41,3.10
2013,05,21,13,42,6.20
2013,05,21,13,43,4.60
2013,05,21,13,44,3.90
2013,05,21,13,45,4.40
2013,05,21,13,46,3.50
2013,05,21,13,47,3.70
2013,05,21,13,48,3.40
2013,05,21,13,49,2.70
2013,05,21,13,50,2.70
2013,05,21,13,51,3.10
2013,05,21,13,52,3.80
2013,05,21,13,53,2.80
2013,05,21,13,54,5.60
2013,05,21,13,55,4.40
2013,05,21,13,56,3.00
2013,05,21,13,57,3.10
2013,05,21,13,58,2.70
2013,05,21,13,59,2.20
2013,05,21,14,00,2.80
2013,05,21,14,01,3.80
2013,05,21,14,02,2.70
2013,05,21,14,03,2.40
2013,05,21,14,04,2.80
2013,05,21,14,05,1.30
2013,05,21,14,06,0.10
2013,05,21,14,07,3.60
2013,05,21,14,08,3.30
2013,05,21,14,09,0.40
2013,05,21,14,10,2.10
2013,05,21,14,11,1.90
2013,05,21,14,12,2.40
2013,05,21,14,13,1.90
2013,05,21,14,14,1.60
2013,05,21,14,15,1.50
2013,05,21,14,16,0.20
2013,05,21,14,17,1.50
2013,05,21,14,18,1.10
2013,05,21,14,19,3.10
2013,05,21,14,20,2.10
2013,05,21,14,21,2.30
2013,05,21,14,22,1.80
2013,05,21,14,23,2.80
2013,05,21,14,24,3.20
2013,05,21,14,25,3.00
2013,05,21,14,26,2.80
2013,05,21,14,27,0.50
2013,05,21,14,28,1.50
2013,05,21,14,29,1.60
2013,05,21,14,30,1.90
2013,05,21,14,31,2.30
2013,05,21,14,32,1.90
2013,05,21,14,33,1.90
2013,05,21,14,34,2.00
2013,05,21,14,35,1.90
2013,05,21,14,36,1.00
2013,05,21,14,37,0.30
2013,05,21,14,38,0.60
2013,05,21,14,39,2.80
2013,05,21,14,40,3.40
2013,05,21,14,41,2.70
2013,05,21,14,42,1.60
2013,05,21,14,43,1.10
2013,05,21,14,44,3.00
2013,05,21,14,45,1.90
2013,05,21,14,46,1.90
2013,05,21,14,47,3.70
2013,05,21,14,48,3.90
2013,05,21,14,49,3.40
2013,05,21,14,50,2.00
2013,05,21,14,51,2.30
2013,05,21,14,52,2.40
2013,05,21,14,53,3.20
2013,05,21,14,54,3.90
2013,05,21,14,55,2.30
2013,05,21,14,56,0.20
2013,05,21,14,57,2.00
2013,05,21,14,58,3.10
2013,05,21,14,59,0.10
2013,05,21,15,00,0.00
2013,05,21,15,01,0.20
2013,05,21,15,02,0.10
2013,05,21,15,03,1.20
2013,05,21,15,04,2.30
2013,05,21,15,05,0.20
2013,05,21,15,06,0.10
2013,05,21,15,07,0.20
2013,05,21,15,08,0.80
2013,05,21,15,09,1.00
2013,05,21,15,10,0.30
2013,05,21,15,11,0.00
2013,05,21,15,12,0.00
2013,05,21,15,13,0.10
2013,05,21,15,14,0.10
2013,05,21,15,15,0.00
2013,05,21,15,16,0.00
2013,05,21,15,17,0.20
2013,05,21,15,18,2.00
2013,05,21,15,19,1.10
2013,05,21,15,20,0.50
2013,05,21,15,21,0.00
2013,05,21,15,22,0.00
2013,05,21,15,23,0.50
2013,05,21,15,24,0.60
2013,05,21,15,25,0.00
2013,05,21,15,26,1.00
2013,05,21,15,27,2.50
2013,05,21,15,28,2.50
2013,05,21,15,29,1.60
2013,05,21,15,30,2.20
2013,05,21,15,31,2.00
2013,05,21,15,32,3.60
2013,05,21,15,33,2.70
2013,05,21,15,34,0.50
2013,05,21,15,35,0.50
2013,05,21,15,36,0.20
2013,05,21,15,37,2.00
2013,05,21,15,38,3.10
2013,05,21,15,39,2.80
2013,05,21,15,40,2.80
2013,05,21,15,41,3.90
2013,05,21,15,42,2.60
2013,05,21,15,43,2.60
2013,05,21,15,44,2.30
2013,05,21,15,45,0.40
2013,05,21,15,46,0.60
2013,05,21,15,47,1.10
2013,05,21,15,48,1.90
2013,05,21,15,49,4.60
2013,05,21,15,50,3.30
2013,05,21,15,51,3.60
2013,05,21,15,52,4.30
2013,05,21,15,53,2.60
2013,05,21,15,54,3.70
2013,05,21,15,55,4.00
2013,05,21,15,56,2.30
2013,05,21,15,57,2.30
2013,05,21,15,58,3.90
2013,05,21,15,59,3.30
2013,05,21,16,00,1.80
2013,05,21,16,01,1.50
2013,05,21,16,02,0.40
2013,05,21,16,03,2.80
2013,05,21,16,04,0.60
2013,05,21,16,05,2.50
2013,05,21,16,06,3.80
2013,05,21,16,07,3.50
2013,05,21,16,08,2.20
2013,05,21,16,09,1.00
2013,05,21,16,10,1.40
2013,05,21,16,11,1.10
2013,05,21,16,12,0.50
2013,05,21,16,13,0.90
2013,05,21,16,14,0.20
2013,05,21,16,15,0.00
2013,05,21,16,16,0.00
2013,05,21,16,17,0.00
2013,05,21,16,18,0.00
2013,05,21,16,19,0.00
2013,05,21,16,20,0.00
2013,05,21,16,21,1.80
2013,05,21,16,22,5.50
2013,05,21,16,23,2.90
2013,05,21,16,24,3.10
2013,05,21,16,25,3.60
2013,05,21,16,26,0.60
2013,05,21,16,27,0.30
2013,05,21,16,28,0.30
2013,05,21,16,29,0.50
2013,05,21,16,30,0.00
2013,05,21,16,31,0.40
2013,05,21,16,32,5.50
2013,05,21,16,33,5.40
2013,05,21,16,34,4.90
2013,05,21,16,35,3.40
2013,05,21,16,36,4.80
2013,05,21,16,37,2.70
2013,05,21,16,38,3.60
2013,05,21,16,39,4.10
2013,05,21,16,40,2.20
2013,05,21,16,41,2.60
2013,05,21,16,42,2.10
2013,05,21,16,43,4.80
2013,05,21,16,44,5.20
2013,05,21,16,45,2.60
2013,05,21,16,46,3.40
2013,05,21,16,47,5.70
2013,05,21,16,48,3.00
2013,05,21,16,49,5.20
2013,05,21,16,50,2.70
2013,05,21,16,51,2.80
2013,05,21,16,52,2.50
2013,05,21,16,53,1.30
2013,05,21,16,54,0.30
2013,05,21,16,55,1.90
2013,05,21,16,56,4.30
2013,05,21,16,57,5.60
2013,05,21,16,58,4.30
2013,05,21,16,59,2.40
2013,05,21,17,00,3.10
2013,05,21,17,01,2.10
2013,05,21,17,02,1.20
2013,05,21,17,03,1.50
2013,05,21,17,04,2.90
2013,05,21,17,05,3.10
2013,05,21,17,06,1.20
2013,05,21,17,07,2.40
2013,05,21,17,08,1.20
2013,05,21,17,09,3.50
2013,05,21,17,10,2.60
2013,05,21,17,11,3.90
2013,05,21,17,12,3.00
2013,05,21,17,13,3.00
2013,05,21,17,14,2.20
2013,05,21,17,15,2.70
2013,05,21,17,16,4.50
2013,05,21,17,17,4.20
2013,05,21,17,18,3.50
2013,05,21,17,19,1.90
2013,05,21,17,20,2.60
2013,05,21,17,21,3.50
2013,05,21,17,22,3.80
2013,05,21,17,23,4.00
2013,05,21,17,24,4.70
2013,05,21,17,25,4.20
2013,05,21,17,26,3.00
2013,05,21,17,27,2.30
2013,05,21,17,28,1.60
2013,05,21,17,29,0.30
2013,05,21,17,30,3.20
2013,05,21,17,31,2.20
2013,05,21,17,32,2.80
2013,05,21,17,33,2.30
2013,05,21,17,34,3.00
2013,05,21,17,35,4.90
2013,05,21,17,36,3.50
2013,05,21,17,37,3.60
2013,05,21,17,38,3.50
2013,05,21,17,39,3.70
2013,05,21,17,40,4.10
2013,05,21,17,41,3.90
2013,05,21,17,42,4.40
2013,05,21,17,43,3.90
2013,05,21,17,44,4.60
2013,05,21,17,45,4.70
2013,05,21,17,46,5.50
2013,05,21,17,47,5.00
2013,05,21,17,48,4.80
2013,05,21,17,49,3.50
2013,05,21,17,50,3.90
2013,05,21,17,51,5.40
2013,05,21,17,52,3.50
2013,05,21,17,53,7.40
2013,05,21,17,54,3.90
2013,05,21,17,55,6.00
2013,05,21,17,56,3.10
2013,05,21,17,57,3.90
2013,05,21,17,58,3.40
2013,05,21,17,59,4.00
2013,05,21,18,00,5.80
2013,05,21,18,01,6.40
2013,05,21,18,02,5.40
2013,05,21,18,03,3.00
2013,05,21,18,04,4.10
2013,05,21,18,05,2.80